Time,TemperatureF,DewpointF,PressureIn,WindDirection,WindDirectionDegrees,WindSpeedMPH,WindSpeedGustMPH,Humidity,HourlyPrecipIn,Conditions,Clouds,dailyrainin,SoftwareType,DateUTC
2013-09-19 00:01:00,61.4,58.7,30.17,SSE,158,0.0,0.0,91,0.00,,,0.00,Wunderground v.1.15,2013-09-19 04:01:00,
2013-09-19 00:02:00,61.3,58.7,30.17,SSE,158,0.0,0.0,91,0.00,,,0.00,Wunderground v.1.15,2013-09-19 04:02:00,
2013-09-19 00:03:00,61.3,58.7,30.17,SSE,158,0.0,0.0,91,0.00,,,0.00,Wunderground v.1.15,2013-09-19 04:03:00,
2013-09-19 00:04:00,61.3,58.7,30.17,SSE,158,0.0,0.0,91,0.00,,,0.00,Wunderground v.1.15,2013-09-19 04:04:00,
2013-09-19 00:09:00,61.2,58.6,30.17,SSE,158,0.0,0.0,91,0.00,,,0.00,Wunderground v.1.15,2013-09-19 04:09:00,
2013-09-19 00:12:00,61.2,58.6,30.16,SSE,158,0.0,0.0,91,0.00,,,0.00,Wunderground v.1.15,2013-09-19 04:12:00,
2013-09-19 00:17:00,61.1,58.5,30.16,SSE,158,0.0,0.0,91,0.00,,,0.00,Wunderground v.1.15,2013-09-19 04:17:00,
2013-09-19 00:23:00,61.0,58.4,30.16,SSE,158,0.0,1.0,91,0.00,,,0.00,Wunderground v.1.15,2013-09-19 04:23:00,
2013-09-19 00:28:00,60.9,58.3,30.16,SSE,158,0.0,1.0,91,0.00,,,0.00,Wunderground v.1.15,2013-09-19 04:28:00,
2013-09-19 00:33:00,60.9,58.3,30.16,SSE,158,0.0,0.0,91,0.00,,,0.00,Wunderground v.1.15,2013-09-19 04:33:00,
2013-09-19 00:38:00,60.8,58.2,30.16,SSE,158,0.0,0.0,91,0.00,,,0.00,Wunderground v.1.15,2013-09-19 04:38:00,
2013-09-19 00:43:00,60.9,58.3,30.16,SSE,147,0.0,0.0,91,0.00,,,0.00,Wunderground v.1.15,2013-09-19 04:43:00,
2013-09-19 00:49:00,60.9,58.3,30.16,SSE,147,0.0,0.0,91,0.00,,,0.00,Wunderground v.1.15,2013-09-19 04:49:00,
2013-09-19 00:54:00,60.9,58.3,30.16,SSE,149,0.0,1.0,91,0.00,,,0.00,Wunderground v.1.15,2013-09-19 04:54:00,
2013-09-19 00:59:00,60.9,58.3,30.16,SSE,149,0.0,1.0,91,0.00,,,0.00,Wunderground v.1.15,2013-09-19 04:59:00,
2013-09-19 01:04:00,60.9,58.3,30.16,SSE,151,0.0,0.0,91,0.00,,,0.00,Wunderground v.1.15,2013-09-19 05:04:00,
2013-09-19 01:09:00,60.9,58.3,30.15,SSE,151,0.0,0.0,91,0.00,,,0.00,Wunderground v.1.15,2013-09-19 05:09:00,
2013-09-19 01:15:00,60.9,58.3,30.15,ESE,113,0.0,0.0,91,0.00,,,0.00,Wunderground v.1.15,2013-09-19 05:15:00,
2013-09-19 01:20:00,61.0,58.4,30.16,ESE,111,0.0,0.0,91,0.00,,,0.00,Wunderground v.1.15,2013-09-19 05:20:00,
2013-09-19 01:25:00,61.0,58.4,30.16,ESE,106,0.0,0.0,91,0.00,,,0.00,Wunderground v.1.15,2013-09-19 05:25:00,
2013-09-19 01:30:00,61.0,58.4,30.15,ESE,119,0.0,0.0,91,0.00,,,0.00,Wunderground v.1.15,2013-09-19 05:30:00,
2013-09-19 01:35:00,60.9,58.3,30.16,ESE,123,0.0,0.0,91,0.00,,,0.00,Wunderground v.1.15,2013-09-19 05:35:00,
2013-09-19 01:41:00,60.9,58.3,30.16,South,172,0.0,0.0,91,0.00,,,0.00,Wunderground v.1.15,2013-09-19 05:41:00,
2013-09-19 01:46:00,60.7,58.1,30.16,South,172,0.0,0.0,91,0.00,,,0.00,Wunderground v.1.15,2013-09-19 05:46:00,
2013-09-19 01:51:00,60.5,57.9,30.16,South,172,1.0,1.0,91,0.00,,,0.00,Wunderground v.1.15,2013-09-19 05:51:00,
2013-09-19 01:56:00,60.4,57.8,30.15,South,172,0.0,1.0,91,0.00,,,0.00,Wunderground v.1.15,2013-09-19 05:56:00,
2013-09-19 02:01:00,60.2,57.6,30.15,South,172,0.0,0.0,91,0.00,,,0.00,Wunderground v.1.15,2013-09-19 06:01:00,
2013-09-19 02:06:00,60.2,57.6,30.15,South,172,0.0,0.0,91,0.00,,,0.00,Wunderground v.1.15,2013-09-19 06:06:00,
2013-09-19 02:11:00,60.2,57.9,30.15,South,172,0.0,0.0,92,0.00,,,0.00,Wunderground v.1.15,2013-09-19 06:11:00,
2013-09-19 02:16:00,60.2,57.9,30.15,South,191,0.0,1.0,92,0.00,,,0.00,Wunderground v.1.15,2013-09-19 06:16:00,
2013-09-19 02:21:00,60.2,57.9,30.15,South,191,0.0,0.0,92,0.00,,,0.00,Wunderground v.1.15,2013-09-19 06:21:00,
2013-09-19 02:26:00,60.1,57.8,30.15,South,191,0.0,1.0,92,0.00,,,0.00,Wunderground v.1.15,2013-09-19 06:26:00,
2013-09-19 02:31:00,60.2,57.9,30.15,South,191,0.0,0.0,92,0.00,,,0.00,Wunderground v.1.15,2013-09-19 06:31:00,
2013-09-19 02:36:00,60.1,57.8,30.15,South,191,0.0,0.0,92,0.00,,,0.00,Wunderground v.1.15,2013-09-19 06:36:00,
2013-09-19 02:41:00,60.0,57.7,30.15,South,191,0.0,0.0,92,0.00,,,0.00,Wunderground v.1.15,2013-09-19 06:41:00,
2013-09-19 02:46:00,59.8,57.5,30.15,South,191,0.0,0.0,92,0.00,,,0.00,Wunderground v.1.15,2013-09-19 06:46:00,
2013-09-19 02:51:00,59.8,57.5,30.15,South,191,0.0,0.0,92,0.00,,,0.00,Wunderground v.1.15,2013-09-19 06:51:00,
2013-09-19 02:56:00,59.7,57.4,30.15,South,191,0.0,1.0,92,0.00,,,0.00,Wunderground v.1.15,2013-09-19 06:56:00,
2013-09-19 03:01:00,59.6,57.3,30.15,South,191,0.0,0.0,92,0.00,,,0.00,Wunderground v.1.15,2013-09-19 07:01:00,
2013-09-19 03:06:00,59.5,57.2,30.15,South,191,0.0,0.0,92,0.00,,,0.00,Wunderground v.1.15,2013-09-19 07:06:00,
2013-09-19 03:11:00,59.4,57.1,30.15,South,191,0.0,0.0,92,0.00,,,0.00,Wunderground v.1.15,2013-09-19 07:11:00,
2013-09-19 03:16:00,59.3,57.0,30.14,South,191,0.0,0.0,92,0.00,,,0.00,Wunderground v.1.15,2013-09-19 07:16:00,
2013-09-19 03:21:00,59.1,56.8,30.14,South,191,0.0,0.0,92,0.00,,,0.00,Wunderground v.1.15,2013-09-19 07:21:00,
2013-09-19 03:26:00,59.0,56.7,30.14,South,191,0.0,0.0,92,0.00,,,0.00,Wunderground v.1.15,2013-09-19 07:26:00,
2013-09-19 03:31:00,59.0,56.7,30.14,South,191,0.0,0.0,92,0.00,,,0.00,Wunderground v.1.15,2013-09-19 07:31:00,
2013-09-19 03:36:00,59.0,56.7,30.14,South,191,0.0,0.0,92,0.00,,,0.00,Wunderground v.1.15,2013-09-19 07:36:00,
2013-09-19 03:41:00,59.0,56.7,30.14,South,191,0.0,0.0,92,0.00,,,0.00,Wunderground v.1.15,2013-09-19 07:41:00,
2013-09-19 03:46:00,59.0,56.7,30.14,South,191,0.0,0.0,92,0.00,,,0.00,Wunderground v.1.15,2013-09-19 07:46:00,
2013-09-19 03:51:00,59.0,56.7,30.14,South,191,0.0,0.0,92,0.00,,,0.00,Wunderground v.1.15,2013-09-19 07:51:00,
2013-09-19 03:56:00,59.0,56.7,30.14,South,191,0.0,0.0,92,0.00,,,0.00,Wunderground v.1.15,2013-09-19 07:56:00,
2013-09-19 04:01:00,58.9,56.6,30.15,South,191,0.0,0.0,92,0.00,,,0.00,Wunderground v.1.15,2013-09-19 08:01:00,
2013-09-19 04:06:00,58.7,56.4,30.14,South,191,0.0,0.0,92,0.00,,,0.00,Wunderground v.1.15,2013-09-19 08:06:00,
2013-09-19 04:11:00,58.6,56.3,30.14,South,191,0.0,0.0,92,0.00,,,0.00,Wunderground v.1.15,2013-09-19 08:11:00,
2013-09-19 04:16:00,58.4,56.1,30.15,South,191,0.0,0.0,92,0.00,,,0.00,Wunderground v.1.15,2013-09-19 08:16:00,
2013-09-19 04:21:00,58.3,56.0,30.15,South,191,0.0,0.0,92,0.00,,,0.00,Wunderground v.1.15,2013-09-19 08:21:00,
2013-09-19 04:26:00,58.2,55.9,30.15,South,191,0.0,0.0,92,0.00,,,0.00,Wunderground v.1.15,2013-09-19 08:26:00,
2013-09-19 04:31:00,58.2,55.9,30.15,South,191,0.0,0.0,92,0.00,,,0.00,Wunderground v.1.15,2013-09-19 08:31:00,
2013-09-19 04:36:00,58.2,55.9,30.15,South,191,0.0,0.0,92,0.00,,,0.00,Wunderground v.1.15,2013-09-19 08:36:00,
2013-09-19 04:41:00,58.3,56.0,30.15,South,191,0.0,0.0,92,0.00,,,0.00,Wunderground v.1.15,2013-09-19 08:41:00,
2013-09-19 04:46:00,58.3,56.0,30.15,South,191,0.0,0.0,92,0.00,,,0.00,Wunderground v.1.15,2013-09-19 08:46:00,
2013-09-19 04:51:00,58.2,55.9,30.15,South,191,0.0,0.0,92,0.00,,,0.00,Wunderground v.1.15,2013-09-19 08:51:00,
2013-09-19 04:56:00,58.1,55.8,30.14,South,191,0.0,0.0,92,0.00,,,0.00,Wunderground v.1.15,2013-09-19 08:56:00,
2013-09-19 05:01:00,58.0,55.7,30.14,South,191,0.0,0.0,92,0.00,,,0.00,Wunderground v.1.15,2013-09-19 09:01:00,
2013-09-19 05:06:00,57.9,55.6,30.14,South,191,0.0,0.0,92,0.00,,,0.00,Wunderground v.1.15,2013-09-19 09:06:00,
2013-09-19 05:11:00,57.8,55.5,30.14,South,191,0.0,0.0,92,0.00,,,0.00,Wunderground v.1.15,2013-09-19 09:11:00,
2013-09-19 05:16:00,57.7,55.4,30.14,South,191,0.0,0.0,92,0.00,,,0.00,Wunderground v.1.15,2013-09-19 09:16:00,
2013-09-19 05:21:00,57.6,55.3,30.14,South,191,0.0,0.0,92,0.00,,,0.00,Wunderground v.1.15,2013-09-19 09:21:00,
2013-09-19 05:26:00,57.6,55.6,30.14,South,191,0.0,0.0,93,0.00,,,0.00,Wunderground v.1.15,2013-09-19 09:26:00,
2013-09-19 05:31:00,57.5,55.2,30.14,South,191,0.0,0.0,92,0.00,,,0.00,Wunderground v.1.15,2013-09-19 09:31:00,
2013-09-19 05:36:00,57.5,55.2,30.14,South,191,0.0,0.0,92,0.00,,,0.00,Wunderground v.1.15,2013-09-19 09:36:00,
2013-09-19 05:41:00,57.5,55.2,30.14,South,191,0.0,0.0,92,0.00,,,0.00,Wunderground v.1.15,2013-09-19 09:41:00,
2013-09-19 05:46:00,57.5,55.5,30.14,South,191,0.0,0.0,93,0.00,,,0.00,Wunderground v.1.15,2013-09-19 09:46:00,
2013-09-19 05:51:00,57.5,55.5,30.14,South,191,0.0,0.0,93,0.00,,,0.00,Wunderground v.1.15,2013-09-19 09:51:00,
2013-09-19 05:56:00,57.6,55.6,30.14,South,191,0.0,0.0,93,0.00,,,0.00,Wunderground v.1.15,2013-09-19 09:56:00,
2013-09-19 06:01:00,57.5,55.5,30.14,South,191,0.0,0.0,93,0.00,,,0.00,Wunderground v.1.15,2013-09-19 10:01:00,
2013-09-19 06:06:00,57.5,55.5,30.14,South,191,0.0,0.0,93,0.00,,,0.00,Wunderground v.1.15,2013-09-19 10:06:00,
2013-09-19 06:11:00,57.6,55.6,30.14,South,191,0.0,0.0,93,0.00,,,0.00,Wunderground v.1.15,2013-09-19 10:11:00,
2013-09-19 06:16:00,57.6,55.6,30.14,South,191,0.0,1.0,93,0.00,,,0.00,Wunderground v.1.15,2013-09-19 10:16:00,
2013-09-19 06:21:00,57.7,55.7,30.14,South,191,0.0,1.0,93,0.00,,,0.00,Wunderground v.1.15,2013-09-19 10:21:00,
2013-09-19 06:26:00,57.8,55.8,30.15,South,191,0.0,1.0,93,0.00,,,0.00,Wunderground v.1.15,2013-09-19 10:26:00,
2013-09-19 06:31:00,57.7,55.7,30.14,South,191,0.0,0.0,93,0.00,,,0.00,Wunderground v.1.15,2013-09-19 10:31:00,
2013-09-19 06:36:00,57.7,55.7,30.15,South,191,0.0,0.0,93,0.00,,,0.00,Wunderground v.1.15,2013-09-19 10:36:00,
2013-09-19 06:41:00,57.7,55.7,30.15,South,191,0.0,0.0,93,0.00,,,0.00,Wunderground v.1.15,2013-09-19 10:41:00,
2013-09-19 06:46:00,57.7,55.7,30.15,South,191,0.0,0.0,93,0.00,,,0.00,Wunderground v.1.15,2013-09-19 10:46:00,
2013-09-19 06:51:00,57.6,55.6,30.15,South,191,0.0,0.0,93,0.00,,,0.00,Wunderground v.1.15,2013-09-19 10:51:00,
2013-09-19 06:56:00,57.5,55.5,30.15,South,191,0.0,0.0,93,0.00,,,0.00,Wunderground v.1.15,2013-09-19 10:56:00,
2013-09-19 07:01:00,57.3,55.3,30.16,South,191,0.0,0.0,93,0.00,,,0.00,Wunderground v.1.15,2013-09-19 11:01:00,
2013-09-19 07:06:00,57.3,55.3,30.16,South,191,0.0,0.0,93,0.00,,,0.00,Wunderground v.1.15,2013-09-19 11:06:00,
2013-09-19 07:11:00,57.3,55.3,30.16,South,191,0.0,0.0,93,0.00,,,0.00,Wunderground v.1.15,2013-09-19 11:11:00,
2013-09-19 07:16:00,57.2,55.2,30.16,South,191,0.0,0.0,93,0.00,,,0.00,Wunderground v.1.15,2013-09-19 11:16:00,
2013-09-19 07:21:00,57.3,55.3,30.16,South,191,0.0,0.0,93,0.00,,,0.00,Wunderground v.1.15,2013-09-19 11:21:00,
2013-09-19 07:26:00,57.3,55.3,30.17,South,191,0.0,0.0,93,0.00,,,0.00,Wunderground v.1.15,2013-09-19 11:26:00,
2013-09-19 07:31:00,57.4,55.4,30.16,South,191,0.0,0.0,93,0.00,,,0.00,Wunderground v.1.15,2013-09-19 11:31:00,
2013-09-19 07:36:00,57.4,55.4,30.16,South,191,0.0,0.0,93,0.00,,,0.00,Wunderground v.1.15,2013-09-19 11:36:00,
2013-09-19 07:41:00,57.3,55.3,30.16,South,191,0.0,0.0,93,0.00,,,0.00,Wunderground v.1.15,2013-09-19 11:41:00,
2013-09-19 07:46:00,57.2,55.2,30.16,South,191,0.0,0.0,93,0.00,,,0.00,Wunderground v.1.15,2013-09-19 11:46:00,
2013-09-19 07:51:00,57.1,55.1,30.16,South,191,0.0,0.0,93,0.00,,,0.00,Wunderground v.1.15,2013-09-19 11:51:00,
2013-09-19 07:56:00,57.1,55.1,30.16,South,191,0.0,0.0,93,0.00,,,0.00,Wunderground v.1.15,2013-09-19 11:56:00,
2013-09-19 08:01:00,57.2,55.2,30.17,South,191,0.0,0.0,93,0.00,,,0.00,Wunderground v.1.15,2013-09-19 12:01:00,
2013-09-19 08:06:00,57.5,55.5,30.17,South,191,0.0,0.0,93,0.00,,,0.00,Wunderground v.1.15,2013-09-19 12:06:00,
2013-09-19 08:11:00,57.9,55.9,30.17,South,191,0.0,0.0,93,0.00,,,0.00,Wunderground v.1.15,2013-09-19 12:11:00,
2013-09-19 08:16:00,58.4,56.4,30.17,SSE,158,0.0,1.0,93,0.00,,,0.00,Wunderground v.1.15,2013-09-19 12:16:00,
2013-09-19 08:21:00,59.0,57.3,30.17,SSE,158,0.0,0.0,94,0.00,,,0.00,Wunderground v.1.15,2013-09-19 12:21:00,
2013-09-19 08:26:00,59.1,57.4,30.17,SSE,155,0.0,1.0,94,0.00,,,0.00,Wunderground v.1.15,2013-09-19 12:26:00,
2013-09-19 08:31:00,59.5,57.8,30.17,SSE,155,0.0,0.0,94,0.00,,,0.00,Wunderground v.1.15,2013-09-19 12:31:00,
2013-09-19 08:36:00,59.8,58.1,30.17,SSE,155,0.0,0.0,94,0.00,,,0.00,Wunderground v.1.15,2013-09-19 12:36:00,
2013-09-19 08:41:00,59.9,58.2,30.17,SSE,155,0.0,0.0,94,0.00,,,0.00,Wunderground v.1.15,2013-09-19 12:41:00,
2013-09-19 08:46:00,59.9,58.2,30.18,SSE,154,0.0,1.0,94,0.00,,,0.00,Wunderground v.1.15,2013-09-19 12:46:00,
2013-09-19 08:51:00,60.0,58.3,30.18,SSE,154,0.0,0.0,94,0.00,,,0.00,Wunderground v.1.15,2013-09-19 12:51:00,
2013-09-19 08:56:00,60.1,58.4,30.18,SSE,154,0.0,0.0,94,0.00,,,0.00,Wunderground v.1.15,2013-09-19 12:56:00,
2013-09-19 09:01:00,60.3,58.3,30.18,SSE,154,0.0,0.0,93,0.00,,,0.00,Wunderground v.1.15,2013-09-19 13:01:00,
2013-09-19 09:06:00,60.4,58.4,30.18,SSE,154,0.0,0.0,93,0.00,,,0.00,Wunderground v.1.15,2013-09-19 13:06:00,
2013-09-19 09:11:00,60.6,58.9,30.18,SSE,154,0.0,0.0,94,0.00,,,0.00,Wunderground v.1.15,2013-09-19 13:11:00,
2013-09-19 09:16:00,60.9,59.2,30.18,SSE,154,0.0,0.0,94,0.00,,,0.00,Wunderground v.1.15,2013-09-19 13:16:00,
2013-09-19 09:21:00,61.2,59.2,30.18,SSE,154,0.0,0.0,93,0.00,,,0.00,Wunderground v.1.15,2013-09-19 13:21:00,
2013-09-19 09:26:00,61.5,59.8,30.18,SSE,154,0.0,1.0,94,0.00,,,0.00,Wunderground v.1.15,2013-09-19 13:26:00,
2013-09-19 09:31:00,61.5,59.5,30.18,SSE,153,0.0,0.0,93,0.00,,,0.00,Wunderground v.1.15,2013-09-19 13:31:00,
2013-09-19 09:36:00,61.8,59.8,30.18,NNE,31,0.0,1.0,93,0.00,,,0.00,Wunderground v.1.15,2013-09-19 13:36:00,
2013-09-19 09:41:00,62.4,60.3,30.18,NNE,31,0.0,1.0,93,0.00,,,0.00,Wunderground v.1.15,2013-09-19 13:41:00,
2013-09-19 09:46:00,62.9,60.8,30.18,NNE,24,0.0,3.0,93,0.00,,,0.00,Wunderground v.1.15,2013-09-19 13:46:00,
2013-09-19 09:51:00,62.9,60.5,30.18,NNE,24,0.0,1.0,92,0.00,,,0.00,Wunderground v.1.15,2013-09-19 13:51:00,
2013-09-19 09:56:00,63.0,60.6,30.18,NNE,24,0.0,1.0,92,0.00,,,0.00,Wunderground v.1.15,2013-09-19 13:56:00,
2013-09-19 10:01:00,63.1,60.4,30.18,NNE,24,0.0,0.0,91,0.00,,,0.00,Wunderground v.1.15,2013-09-19 14:01:00,
2013-09-19 10:06:00,63.6,60.9,30.18,NNE,24,0.0,1.0,91,0.00,,,0.00,Wunderground v.1.15,2013-09-19 14:06:00,
2013-09-19 10:11:00,63.9,60.9,30.18,NNE,24,0.0,1.0,90,0.00,,,0.00,Wunderground v.1.15,2013-09-19 14:11:00,
2013-09-19 10:16:00,64.5,61.2,30.18,NNE,24,0.0,1.0,89,0.00,,,0.00,Wunderground v.1.15,2013-09-19 14:16:00,
2013-09-19 10:21:00,64.9,61.6,30.18,NNE,24,0.0,0.0,89,0.00,,,0.00,Wunderground v.1.15,2013-09-19 14:21:00,
2013-09-19 10:26:00,65.5,61.9,30.18,NNE,24,0.0,1.0,88,0.00,,,0.00,Wunderground v.1.15,2013-09-19 14:26:00,
2013-09-19 10:31:00,65.9,61.3,30.18,NNE,24,0.0,0.0,85,0.00,,,0.00,Wunderground v.1.15,2013-09-19 14:31:00,
2013-09-19 10:36:00,66.1,61.1,30.17,NNE,24,0.0,0.0,84,0.00,,,0.00,Wunderground v.1.15,2013-09-19 14:36:00,
2013-09-19 10:41:00,66.4,61.1,30.17,NNE,24,0.0,0.0,83,0.00,,,0.00,Wunderground v.1.15,2013-09-19 14:41:00,
2013-09-19 10:46:00,66.9,61.6,30.17,NNE,24,0.0,0.0,83,0.00,,,0.00,Wunderground v.1.15,2013-09-19 14:46:00,
2013-09-19 10:51:00,67.4,61.7,30.17,NNE,23,0.0,1.0,82,0.00,,,0.00,Wunderground v.1.15,2013-09-19 14:51:00,
2013-09-19 10:56:00,68.0,61.9,30.18,NNE,23,0.0,1.0,81,0.00,,,0.00,Wunderground v.1.15,2013-09-19 14:56:00,
2013-09-19 11:01:00,68.4,61.3,30.18,WSW,247,0.0,1.0,78,0.00,,,0.00,Wunderground v.1.15,2013-09-19 15:01:00,
2013-09-19 11:06:00,69.0,61.9,30.18,WSW,252,0.0,1.0,78,0.00,,,0.00,Wunderground v.1.15,2013-09-19 15:06:00,
2013-09-19 11:11:00,69.4,61.1,30.18,WSW,252,0.0,3.0,75,0.00,,,0.00,Wunderground v.1.15,2013-09-19 15:11:00,
2013-09-19 11:16:00,69.7,61.4,30.18,SW,219,0.0,4.0,75,0.00,,,0.00,Wunderground v.1.15,2013-09-19 15:16:00,
2013-09-19 11:21:00,70.2,61.9,30.18,SW,235,0.0,1.0,75,0.00,,,0.00,Wunderground v.1.15,2013-09-19 15:21:00,
2013-09-19 11:26:00,70.2,61.1,30.18,WNW,291,0.0,5.0,73,0.00,,,0.00,Wunderground v.1.15,2013-09-19 15:26:00,
2013-09-19 11:31:00,70.3,61.2,30.18,SSW,202,0.0,3.0,73,0.00,,,0.00,Wunderground v.1.15,2013-09-19 15:31:00,
2013-09-19 11:36:00,70.4,60.9,30.17,WSW,244,0.0,6.0,72,0.00,,,0.00,Wunderground v.1.15,2013-09-19 15:36:00,
2013-09-19 11:41:00,70.4,61.7,30.17,SW,220,1.0,3.0,74,0.00,,,0.00,Wunderground v.1.15,2013-09-19 15:41:00,
2013-09-19 11:46:00,70.8,61.7,30.17,West,267,6.0,7.0,73,0.00,,,0.00,Wunderground v.1.15,2013-09-19 15:46:00,
2013-09-19 11:51:00,71.0,61.9,30.17,WSW,238,0.0,1.0,73,0.00,,,0.00,Wunderground v.1.15,2013-09-19 15:51:00,